Wind_Speed
13 13 12 13 13 13 13 14 15 15 15 15 15 16 16 16 17 18 19 20 21 22 22 22 22 22 21 20 20 19 18 18 17 17 16 15 20 25 26 28 28 25 22 19 17 15 13 11 7 8 11 13 13 16 15 11 10 10 8 10 15 17 16 17 18 18 19 20 17 14 13 14 17 12 8 10 8 8 10 7 5 6 7 12 16 18 19 19
14 13 13 13 13 13 13 13 15 16 15 15 15 15 16 16 17 17 18 18 20 21 21 22 22 22 21 20 20 18 18 17 16 16 14 14 20 24 25 28 29 26 23 20 19 17 15 12 9 10 14 16 15 16 15 12 12 12 10 10 16 17 14 15 17 18 19 19 15 13 12 11 12 11 11 12 11 9 10 10 5 6 11 15 16 16 19 18
15 14 14 13 13 13 13 13 14 15 16 15 15 15 15 16 16 17 17 18 19 20 21 21 22 21 21 20 19 17 17 15 15 15 14 15 17 20 23 28 29 27 24 22 21 19 17 13 11 12 15 18 19 16 13 13 11 13 14 13 16 17 14 16 18 17 18 17 15 14 10 9 10 12 14 14 14 11 7 6 6 7 11 15 16 15 16 18
15 15 14 14 14 14 13 13 14 15 16 16 15 15 15 15 16 16 17 17 18 19 20 20 21 20 20 19 17 16 16 14 13 13 12 14 15 17 22 26 29 28 26 24 23 21 18 15 12 13 18 20 19 14 12 12 11 12 14 10 15 20 20 22 18 13 17 16 15 16 11 11 13 16 20 16 13 13 11 4 5 6 7 10 15 15 14 15
15 15 15 15 14 14 14 14 14 15 15 16 15 15 15 15 15 16 16 17 18 18 19 19 19 19 19 18 16 15 14 12 10 11 12 14 16 18 21 25 29 29 28 26 25 22 19 17 13 16 22 20 16 12 8 7 11 11 13 11 21 24 23 24 17 14 17 15 15 16 14 16 17 18 20 10 7 10 9 5 2 4 5 5 9 13 13 12
15 15 15 15 15 15 15 15 15 15 16 16 15 15 15 15 15 15 16 17 17 17 17 17 17 17 17 16 14 14 13 9 6 7 11 15 17 19 21 25 29 30 30 28 26 23 20 18 16 20 22 17 14 11 6 6 7 12 18 19 25 22 21 22 17 15 16 15 15 16 15 17 19 18 14 7 6 5 5 5 3 1 2 3 6 10 11 9
15 15 15 15 15 15 15 15 15 15 16 16 15 15 15 16 15 15 16 16 17 17 17 16 16 16 16 15 14 14 12 8 6 6 10 16 18 21 23 26 30 31 31 30 27 24 22 20 19 20 19 16 13 11 7 8 5 21 24 23 22 16 17 18 15 14 16 16 14 15 13 13 18 18 12 11 9 6 7 7 5 2 1 2 7 10 10 9
16 16 15 15 15 15 16 16 16 16 16 16 16 15 15 16 16 16 16 16 16 16 16 16 15 14 15 14 14 13 11 9 9 7 10 16 19 22 24 26 30 32 32 31 28 25 23 22 20 19 19 15 9 7 4 8 6 22 23 21 19 16 19 19 17 16 17 16 14 14 11 11 16 16 13 13 10 8 8 8 8 4 3 4 8 10 10 10
17 17 16 16 15 15 16 16 16 16 16 17 16 16 16 16 16 16 17 16 15 15 15 16 14 13 14 14 14 11 9 10 11 9 10 15 20 23 25 26 29 31 33 32 29 27 25 23 20 19 18 11 6 3 4 6 11 22 19 20 20 20 22 21 19 16 16 14 11 9 8 12 16 14 13 11 9 9 10 10 9 6 5 6 9 10 9 10
18 18 18 17 16 15 16 16 17 16 16 17 17 17 16 16 16 17 17 17 16 15 14 15 14 13 12 14 13 9 9 11 11 12 12 14 20 24 26 26 28 31 33 33 30 28 26 22 18 19 15 8 6 2 7 2 18 21 17 19 20 21 23 21 19 18 15 10 4 3 8 12 14 14 12 11 12 12 12 12 10 7 6 7 10 10 10 12
19 19 19 18 17 16 16 16 17 17 16 16 17 17 17 17 17 17 17 17 17 15 14 15 14 13 12 14 13 8 9 12 12 15 16 15 19 24 26 27 28 31 34 34 32 29 25 21 19 19 13 7 4 4 3 11 20 21 19 22 23 23 24 20 17 17 11 6 4 5 10 11 12 12 10 13 15 14 13 12 10 8 8 9 11 11 11 13
19 19 20 20 19 18 17 16 17 17 17 17 17 17 17 17 17 17 18 18 17 16 15 15 14 13 13 14 12 10 13 13 14 16 18 19 21 24 26 27 28 31 35 35 34 30 24 22 21 20 13 7 5 2 11 17 17 20 18 23 29 24 23 21 18 15 7 5 7 7 14 13 12 11 11 15 15 14 14 12 11 8 8 11 11 11 10 10
19 19 19 20 20 19 18 18 18 18 18 17 17 18 18 17 17 17 17 18 17 16 16 16 14 13 14 12 10 13 15 15 16 17 19 21 23 26 27 29 29 32 36 37 35 30 26 23 22 19 14 10 5 2 2 13 18 20 15 20 29 24 22 21 18 16 8 5 5 3 12 14 13 11 11 14 13 12 14 13 12 10 9 11 11 11 10 9
19 19 19 19 20 20 20 19 19 19 19 18 17 18 18 17 17 17 17 17 17 16 16 16 14 13 14 11 10 13 15 15 15 15 19 21 24 27 28 30 31 34 38 38 36 32 28 25 22 20 17 13 8 8 9 13 23 21 18 19 25 26 24 20 18 17 10 7 6 3 7 14 14 12 11 12 11 10 11 12 12 10 9 11 11 10 10 10
20 20 20 19 20 20 20 20 20 20 19 19 17 18 18 17 17 16 16 16 17 16 16 16 14 13 13 10 10 12 14 13 11 12 17 21 23 27 28 30 32 35 39 38 36 34 30 27 24 22 19 14 11 13 6 16 25 23 23 22 24 24 23 21 18 15 10 9 11 7 5 14 14 12 11 10 11 10 11 11 12 10 10 11 11 10 10 11
21 21 20 20 20 20 20 20 21 20 20 19 17 17 18 18 16 14 13 15 17 17 17 16 13 12 11 9 8 11 11 10 10 12 16 20 23 26 26 29 32 35 39 37 35 34 30 27 25 22 19 16 14 14 8 12 24 26 23 23 24 22 23 26 20 13 9 11 16 13 6 12 12 10 11 9 9 10 10 12 11 9 10 12 11 10 10 11
21 21 21 21 21 20 21 21 21 20 20 19 18 17 17 17 16 13 14 16 18 19 19 17 14 12 9 6 5 5 5 7 10 12 15 20 23 25 25 28 32 35 38 35 33 34 28 26 25 21 20 19 17 15 12 12 24 27 22 22 23 22 25 29 26 18 13 11 17 19 12 7 6 7 10 9 8 9 9 10 10 8 10 12 10 10 11 12
21 21 21 21 21 21 21 22 22 21 20 19 18 18 17 17 16 14 15 18 19 20 21 17 15 12 6 6 8 7 4 5 9 11 15 21 24 24 24 26 30 34 36 34 33 33 28 26 25 21 21 22 20 18 14 12 23 27 23 23 24 26 29 30 29 26 20 14 17 22 18 10 7 8 8 8 8 7 6 7 7 7 10 12 10 10 11 12
21 21 21 21 21 21 21 22 22 22 20 18 18 18 17 17 16 15 17 20 21 19 19 17 15 14 10 12 13 11 9 7 9 12 17 22 26 25 24 25 27 32 35 34 35 33 29 28 27 23 24 26 24 21 16 13 19 25 25 25 27 30 31 30 28 26 24 21 21 24 22 16 13 11 9 7 7 6 5 6 7 7 9 12 10 10 11 12
21 21 20 21 21 21 21 22 22 22 20 17 16 17 16 18 19 18 21 24 23 21 21 21 20 19 16 17 14 10 9 11 12 12 17 25 27 26 25 24 26 30 34 35 35 34 29 30 32 29 29 29 25 21 17 14 15 21 26 28 28 30 30 29 28 25 25 25 26 27 25 21 16 13 10 8 8 9 8 7 7 6 8 11 11 11 11 11
21 21 21 20 20 21 21 22 22 22 20 17 16 15 14 17 19 20 25 28 26 24 26 24 24 24 18 19 16 12 10 13 14 9 14 26 28 27 27 26 27 30 35 35 33 33 30 33 38 35 31 29 25 21 18 16 14 18 27 32 29 28 29 28 27 27 29 28 27 27 26 23 18 14 13 12 10 10 11 9 7 6 7 8 10 11 11 11
21 21 21 20 20 20 21 21 22 22 20 16 15 13 14 18 17 17 24 28 24 22 25 23 25 26 19 22 19 14 12 16 16 10 14 27 31 30 29 28 29 32 34 34 33 33 31 36 43 38 31 29 26 22 20 17 16 19 26 32 30 30 28 26 25 27 31 31 27 27 26 22 19 16 15 15 12 9 10 10 7 6 7 9 10 10 12 12
22 21 21 20 19 20 20 21 21 21 19 15 14 15 18 19 18 19 23 31 30 22 22 23 24 26 22 24 21 18 19 18 16 13 17 28 33 30 28 28 29 31 33 35 35 32 31 37 44 40 32 30 28 25 21 19 20 22 23 26 29 31 29 28 27 27 32 32 26 26 24 21 19 18 18 16 12 9 10 12 11 9 9 8 8 9 11 12
22 21 21 21 19 19 19 20 20 20 19 14 14 18 20 19 19 23 25 31 34 22 15 19 23 28 24 25 23 23 23 17 15 16 19 28 32 29 28 27 28 31 33 36 36 31 30 36 40 38 34 32 30 26 23 23 24 23 23 25 25 27 31 32 30 28 30 28 25 25 24 25 25 22 21 19 14 12 12 15 17 17 15 12 10 11 12 12
22 21 22 21 20 19 18 19 19 19 18 14 16 19 19 17 17 23 24 27 33 24 14 17 24 26 20 25 28 26 20 15 16 19 21 26 31 30 26 24 27 32 34 35 35 31 29 31 32 33 35 34 31 28 25 23 25 25 25 24 23 23 27 32 32 30 28 25 27 28 21 22 30 28 23 23 21 19 18 20 22 22 21 20 17 15 15 14
22 21 22 22 21 19 17 18 18 18 18 15 18 18 16 16 15 19 21 23 31 27 15 13 21 20 19 31 31 24 18 18 17 20 23 24 28 30 26 24 27 31 34 33 32 31 28 28 29 29 34 36 31 29 27 22 26 29 23 19 21 22 24 29 34 33 30 29 33 34 23 18 29 33 27 25 26 23 23 24 27 27 26 25 22 19 18 18
22 21 22 22 21 20 16 16 16 18 18 16 17 17 14 14 13 15 16 15 19 17 11 10 16 14 20 32 31 25 21 19 18 22 25 22 26 31 28 27 27 27 32 32 29 33 30 28 29 27 31 36 35 32 28 24 29 30 20 14 19 22 22 26 34 38 37 35 35 36 29 20 28 35 31 29 28 26 27 28 29 31 30 28 25 21 20 19
22 22 22 21 21 21 17 13 15 17 19 16 15 15 13 12 11 12 9 5 8 9 10 11 12 14 19 29 29 25 20 16 21 25 23 20 25 32 30 28 26 24 30 33 31 34 32 30 30 29 29 35 39 35 27 26 31 28 19 16 19 20 19 22 32 41 39 31 30 35 29 16 21 34 32 30 32 30 30 31 30 33 33 31 29 25 22 20
22 22 22 21 20 21 17 13 14 16 18 17 13 14 14 11 10 8 3 2 8 9 9 9 9 14 18 27 27 22 17 15 20 24 22 20 24 32 32 28 24 22 27 33 32 31 31 31 29 29 31 34 38 34 28 29 30 25 21 21 21 20 17 20 33 43 36 23 27 38 34 16 13 28 36 35 36 36 34 33 31 33 34 32 31 29 25 22
22 22 23 20 19 19 17 14 15 15 16 16 14 13 13 12 11 6 2 6 12 9 6 7 10 13 15 25 26 21 20 18 17 21 25 23 24 30 31 27 23 22 25 31 31 28 28 30 29 28 31 35 37 33 32 32 29 25 24 22 23 25 18 21 36 43 27 13 26 41 42 27 11 19 36 37 32 31 33 36 35 34 35 35 33 31 29 26
21 23 23 20 19 19 15 12 17 16 13 14 15 14 13 13 12 7 4 11 16 13 11 11 11 15 14 22 26 24 25 23 17 20 28 28 27 31 33 30 28 26 27 31 33 29 26 29 32 31 29 31 35 34 33 33 30 29 27 24 22 21 14 15 26 31 14 5 23 37 41 34 17 17 30 34 30 28 29 33 34 32 32 34 34 32 31 30
22 23 23 21 19 17 12 11 18 17 12 14 15 14 15 13 13 16 15 13 10 8 11 11 11 17 16 20 27 28 28 26 22 22 27 31 31 35 36 35 34 29 26 29 31 32 32 32 34 33 32 32 34 34 32 31 32 31 30 27 18 9 7 7 9 12 7 6 19 30 33 30 27 28 28 29 27 25 28 31 28 24 23 29 33 31 30 30
23 23 22 21 19 16 12 13 18 18 14 14 14 16 18 12 13 26 30 21 11 5 4 3 5 12 17 23 28 31 30 28 26 24 26 29 32 35 35 36 36 31 26 26 27 30 32 33 36 36 35 36 36 37 36 34 35 35 33 30 18 6 3 2 3 2 5 9 16 24 24 20 25 30 26 24 22 18 23 30 28 22 18 23 29 29 28 28
23 24 22 20 19 16 13 15 19 19 16 16 16 18 20 16 19 30 33 29 23 14 7 3 8 12 14 25 28 30 32 31 28 26 28 31 34 37 36 36 37 34 28 25 26 27 25 27 37 40 36 36 38 39 38 34 33 35 34 31 26 17 7 4 4 4 6 11 16 20 14 9 14 19 19 22 21 18 22 28 28 23 21 22 27 29 27 26
22 23 22 20 18 17 16 17 19 20 19 18 19 21 25 26 28 31 32 31 31 28 22 17 19 22 17 22 29 30 31 31 29 28 29 33 38 38 37 38 39 37 32 24 24 26 24 27 35 39 35 33 34 37 37 36 34 32 32 31 27 23 17 10 9 10 11 10 11 13 9 8 11 12 16 21 20 17 19 24 27 25 26 29 31 31 26 24
21 22 21 20 18 17 18 19 20 21 21 20 22 27 32 32 30 29 28 26 23 23 24 24 20 18 19 17 25 33 31 29 30 30 28 31 37 38 36 36 38 41 38 30 24 22 21 27 32 34 35 32 30 32 34 34 33 31 34 36 30 24 22 16 10 12 10 4 6 11 11 14 15 15 21 26 23 17 17 21 25 24 26 30 32 31 27 24
20 21 19 19 20 18 19 20 21 22 22 23 27 32 36 34 30 29 28 24 18 13 14 20 19 16 17 20 18 31 33 28 28 31 30 29 34 39 37 33 34 40 41 34 30 24 17 22 30 31 32 32 30 30 32 32 29 30 34 36 31 25 22 17 9 4 3 1 4 13 17 17 13 12 18 24 23 20 22 25 25 23 24 27 29 29 26 23
19 18 16 18 20 18 17 19 21 22 23 26 31 34 36 35 30 30 30 28 26 21 19 22 22 18 17 22 21 22 32 32 29 31 33 30 31 36 40 35 31 36 40 36 33 30 21 19 26 29 28 29 29 29 34 35 31 30 30 29 29 23 18 17 9 2 2 1 3 10 17 19 16 15 17 21 23 24 27 29 27 25 25 24 24 26 25 24
18 15 15 16 15 14 15 17 18 21 25 29 34 34 35 35 31 29 30 29 27 26 26 27 26 24 23 25 27 22 20 32 35 31 31 31 30 33 40 41 33 31 38 41 36 33 26 18 20 27 29 29 31 34 39 40 37 34 28 26 32 29 23 24 19 10 7 3 3 7 9 13 16 17 18 21 23 24 28 31 30 27 23 19 18 19 20 21
17 14 13 12 10 11 13 16 18 22 27 31 34 34 34 34 32 29 29 28 25 25 27 28 28 30 30 29 31 28 22 25 36 37 33 31 31 31 37 43 38 30 34 43 42 36 32 25 23 25 26 29 37 40 39 39 40 39 32 28 32 31 27 27 23 20 15 7 4 4 5 10 16 15 16 20 22 24 26 27 28 25 20 17 16 15 15 16
16 12 10 8 12 13 11 14 19 22 27 30 32 33 33 32 32 30 27 24 22 23 24 25 26 29 31 32 30 27 26 26 30 38 37 33 30 29 33 40 40 33 32 41 46 42 36 32 30 29 26 27 37 40 37 37 38 40 39 33 31 28 25 20 13 16 20 13 8 6 5 11 14 12 13 18 23 25 23 21 23 23 21 20 17 14 15 16
15 10 8 11 15 16 14 15 17 18 24 27 27 28 29 30 31 31 27 24 23 22 22 24 26 27 29 30 28 26 27 28 24 28 34 36 35 31 31 36 38 35 33 39 47 46 40 34 30 31 31 26 30 35 36 35 34 36 39 37 33 30 27 20 11 13 20 17 14 11 6 8 10 8 13 21 24 24 23 22 23 22 21 20 17 16 15 16
15 9 10 14 16 17 19 19 18 18 22 23 22 23 24 27 30 30 27 24 23 21 22 24 27 28 27 27 27 25 26 27 24 21 23 31 40 38 33 33 37 39 38 36 43 47 43 36 29 26 29 28 29 34 37 37 34 34 37 36 33 32 33 26 14 14 19 18 15 9 3 7 11 9 15 24 25 25 27 26 23 20 19 17 17 19 18 17
16 11 13 18 19 19 21 21 19 20 20 18 18 19 19 21 24 26 25 23 22 21 23 25 26 27 27 27 27 24 23 24 22 19 16 18 32 39 37 34 34 41 42 38 40 43 40 38 32 20 15 18 23 28 33 37 37 35 36 36 30 28 31 29 20 14 14 13 14 10 5 10 15 16 22 28 28 29 28 24 21 19 20 19 19 21 22 20
16 13 16 24 25 23 23 22 20 19 18 17 19 20 20 21 22 23 23 23 22 22 25 27 26 27 30 29 27 24 23 19 15 16 15 14 20 30 37 39 37 39 40 36 38 41 38 40 38 24 13 10 11 17 28 37 38 35 33 33 31 27 27 29 25 19 14 10 13 14 11 14 20 23 27 30 32 31 27 23 22 21 21 22 21 21 23 22
14 15 18 25 28 26 26 25 22 21 20 21 23 23 22 24 25 23 22 23 23 22 23 24 25 29 31 28 25 25 23 16 13 16 18 14 14 19 26 33 36 39 40 37 37 41 40 40 41 37 31 26 22 26 36 39 36 33 33 33 33 31 31 31 29 25 21 15 15 19 16 19 26 27 28 32 34 31 29 28 25 22 21 22 20 19 21 20
14 16 18 21 24 27 30 29 25 24 23 23 24 24 23 23 24 22 21 21 19 21 22 21 23 27 26 25 29 29 25 21 18 16 15 10 8 10 14 18 22 28 38 43 43 42 40 38 38 40 42 39 31 28 35 39 38 36 35 36 37 34 34 34 32 30 26 18 17 21 20 22 29 31 30 34 34 32 31 31 28 24 22 21 20 20 20 18
15 15 17 18 19 22 28 30 28 26 26 24 25 26 23 21 21 21 20 20 16 17 20 19 20 23 21 22 27 27 22 22 20 15 13 12 10 8 11 14 15 16 24 39 47 45 41 39 37 36 38 40 33 26 27 31 35 40 37 36 39 37 35 35 34 36 35 26 22 23 23 25 29 33 34 33 33 33 32 33 31 25 21 22 23 22 20 19
16 17 17 18 20 20 22 27 27 26 26 24 23 23 22 19 18 18 19 19 19 18 19 20 21 21 19 20 22 20 17 17 16 13 12 16 16 13 12 11 18 17 14 24 41 48 42 36 38 37 35 37 35 28 26 24 27 39 43 38 38 38 37 36 34 37 40 35 31 31 31 29 28 28 31 31 32 35 34 34 31 25 24 27 26 23 21 20
17 19 18 17 19 20 21 24 25 25 24 20 18 18 19 18 15 16 16 15 17 18 17 20 22 22 23 24 21 17 15 16 16 14 13 14 14 12 11 8 12 14 7 6 23 43 45 34 33 39 37 37 37 30 25 24 24 33 42 41 37 35 35 35 33 35 39 38 36 34 31 30 27 25 28 31 35 37 35 33 30 27 28 30 27 24 22 19
18 19 19 19 18 17 20 23 24 24 22 20 19 17 16 15 13 15 18 16 15 15 11 13 17 17 22 22 16 9 10 13 17 18 18 16 11 9 9 8 9 10 5 0 4 21 41 37 29 35 36 32 33 28 18 17 18 21 33 41 35 26 25 27 27 28 31 34 37 37 35 33 30 28 31 36 39 37 34 32 30 30 31 29 25 24 24 19
18 18 20 21 18 15 17 21 22 21 20 21 21 17 14 12 9 11 15 20 21 14 9 11 13 13 15 15 11 6 7 9 15 20 22 23 15 10 12 12 11 12 10 7 5 13 28 40 32 30 31 25 27 28 15 9 9 9 17 29 27 14 10 13 15 16 18 19 21 25 30 31 28 29 34 41 42 39 35 33 32 32 31 27 23 24 24 19
Wind_Direction
313 313 312 312 309 307 309 313 317 316 307 295 291 291 290 291 291 289 287 285 285 284 284 284 285 285 285 285 283 282 280 273 264 249 236 224 217 217 212 210 215 216 216 216 213 206 198 201 200 199 193 189 187 187 186 179 183 190 202 212 183 169 168 160 154 150 142 141 147 163 170 153 149 151 126 110 97 98 110 121 118 108 121 142 144 140 142 144
312 311 312 312 310 308 308 311 315 317 313 301 292 291 290 291 292 292 291 288 287 286 285 286 286 286 287 286 285 284 280 270 260 247 233 220 215 212 205 205 210 211 212 212 209 199 196 201 204 215 201 189 181 174 183 191 201 209 212 217 195 176 166 163 159 152 149 150 153 168 176 170 163 149 134 133 135 142 143 147 162 151 145 148 149 147 150 149
311 310 310 311 312 310 308 309 312 317 316 308 298 292 291 291 293 294 293 292 290 288 287 287 287 287 287 286 286 285 278 268 255 246 234 220 216 209 201 201 204 207 208 207 204 195 195 200 203 215 205 195 178 168 196 211 219 225 224 231 205 178 162 165 162 155 156 154 155 165 172 169 154 133 141 154 154 175 197 158 147 146 143 149 151 152 157 153
310 310 308 308 311 312 310 308 310 315 317 313 304 295 293 292 294 296 296 296 293 291 289 288 287 286 286 285 285 283 276 269 256 243 228 213 208 202 197 198 200 203 204 203 199 192 196 199 202 207 198 191 179 187 223 228 251 246 224 216 186 171 155 158 157 149 155 151 156 161 158 149 136 139 159 171 167 192 235 216 109 98 117 146 155 158 164 161
310 310 308 306 307 310 311 309 309 313 317 316 309 300 296 294 295 297 299 300 297 295 291 289 287 284 283 282 281 278 273 273 261 239 219 204 198 195 190 193 197 200 200 200 194 191 197 197 201 202 196 192 192 216 226 239 272 246 214 172 158 163 152 155 156 148 155 154 159 159 155 150 147 158 171 192 202 203 230 216 142 69 96 141 165 168 170 172
308 310 309 306 305 307 309 310 310 311 316 317 313 305 299 297 297 298 300 302 301 299 295 290 287 282 279 276 275 272 266 268 262 232 211 197 191 189 186 189 194 196 197 196 191 192 194 194 200 200 200 197 195 214 211 263 266 173 177 157 147 155 145 150 154 148 159 165 167 164 163 162 164 170 175 201 212 212 231 226 229 108 111 137 168 181 182 186
306 308 310 308 305 304 305 309 311 311 313 315 315 308 301 299 298 299 300 302 305 302 299 293 286 280 274 270 268 266 262 255 241 223 203 194 188 186 186 188 191 193 193 192 190 191 192 194 198 199 203 195 195 222 236 278 218 148 154 151 147 152 138 139 139 140 160 171 174 169 169 172 174 174 178 198 197 203 211 216 227 195 206 151 160 185 191 193
305 306 309 309 306 303 303 305 309 311 311 313 315 311 304 300 299 301 301 303 305 305 302 296 288 277 268 266 264 263 264 253 233 213 195 192 188 187 187 189 191 190 190 190 189 190 194 194 196 204 205 198 216 243 287 318 205 155 144 142 146 141 132 133 137 144 158 168 172 171 174 173 180 183 186 203 201 203 204 203 216 213 227 181 161 183 192 191
305 305 307 309 307 304 301 301 305 309 310 311 312 311 307 302 300 301 301 303 304 305 303 297 289 273 263 263 262 261 261 251 230 207 195 191 189 188 187 188 190 188 188 189 190 193 195 194 198 206 205 212 239 229 343 325 182 162 143 139 145 141 139 143 146 154 162 166 170 174 177 173 191 197 183 197 200 197 209 210 218 223 220 185 163 179 186 186
307 305 305 307 308 304 300 299 301 305 309 310 310 310 307 303 300 300 301 303 302 304 303 298 291 272 260 259 259 262 256 249 229 205 194 191 193 190 186 187 187 186 187 187 192 195 193 193 198 204 209 225 221 267 335 193 162 155 143 141 150 153 150 153 154 159 167 168 173 177 169 173 200 207 182 187 199 202 212 218 224 221 207 180 161 168 166 175
307 306 306 306 307 306 301 298 298 301 306 308 308 307 306 303 301 299 300 301 300 302 301 298 291 273 261 255 251 252 244 240 233 213 194 190 193 190 187 187 185 184 184 187 194 196 194 193 196 204 217 227 233 321 41 147 151 145 142 144 156 162 156 161 164 162 174 175 169 152 143 158 190 209 201 189 200 211 213 219 223 214 194 173 162 162 154 165
305 305 306 306 306 306 303 299 297 298 302 306 306 305 304 302 301 299 298 299 299 300 300 297 290 275 261 253 246 242 238 228 226 218 198 189 188 187 188 185 184 183 182 189 195 195 196 193 194 207 221 234 263 360 126 150 159 149 149 151 153 161 165 177 184 179 189 171 172 142 126 148 182 201 203 192 204 214 214 222 221 212 188 167 163 167 154 155
302 302 304 305 305 306 304 301 298 297 299 302 304 303 301 299 300 299 296 296 298 298 298 295 288 276 262 255 249 243 243 233 224 219 202 191 184 183 186 183 181 180 182 190 193 194 197 192 197 209 222 228 215 330 146 176 175 160 163 160 152 156 163 179 192 185 182 155 180 150 133 159 182 194 198 198 212 215 216 221 214 209 185 168 167 170 162 162
301 300 300 302 303 305 305 303 301 299 299 301 301 301 299 298 298 298 295 295 297 296 294 292 289 279 264 258 254 240 241 239 230 221 205 194 184 180 182 183 180 179 183 191 191 194 197 194 204 211 215 219 207 302 307 182 177 164 158 161 157 159 160 175 191 183 175 157 184 224 155 168 180 187 193 202 216 221 220 215 210 204 179 173 175 178 174 170
299 299 298 298 299 302 303 303 303 302 302 303 301 299 297 296 297 297 296 294 292 290 288 289 288 282 269 256 249 236 236 239 229 213 202 194 185 180 180 182 181 179 185 191 191 192 195 197 210 213 211 222 241 279 281 165 171 164 158 162 163 165 164 175 194 196 187 168 186 216 166 167 182 185 178 191 206 217 223 210 210 201 177 180 181 187 187 176
297 298 298 297 297 297 299 301 303 305 306 307 304 300 296 294 295 294 288 284 284 283 282 284 283 279 272 258 240 230 243 249 226 205 197 194 185 178 179 183 183 182 187 192 191 192 196 202 210 215 215 226 242 248 244 185 171 164 168 172 171 173 169 173 187 202 196 177 187 207 188 167 182 184 172 176 180 192 209 205 212 206 179 186 189 196 201 190
294 295 296 296 296 295 295 296 300 304 306 309 310 303 295 292 292 284 277 277 279 279 279 279 276 271 262 244 211 201 255 263 235 214 202 197 184 175 181 187 185 185 189 191 193 194 196 204 207 214 220 223 226 224 244 223 174 167 177 179 177 177 172 175 182 188 194 194 195 204 214 203 188 181 175 176 166 169 192 200 213 213 187 192 197 200 205 198
292 293 293 293 295 295 294 293 295 300 304 310 313 307 297 291 286 274 271 274 275 278 279 277 271 266 242 192 166 147 161 233 240 229 210 196 182 178 184 189 187 186 190 192 196 196 195 203 205 211 219 218 217 218 237 223 172 169 179 180 180 174 175 181 182 185 188 193 200 199 208 220 201 184 179 182 175 159 175 196 203 206 192 193 199 201 204 200
292 291 290 291 292 292 293 293 293 296 300 308 313 310 303 295 285 271 267 268 266 268 273 275 267 253 214 171 154 144 152 186 217 220 209 196 183 181 185 188 189 187 192 194 196 197 197 203 204 209 216 212 211 212 218 211 179 178 183 184 185 179 181 187 184 190 193 191 197 197 203 214 208 201 200 203 197 170 172 205 200 193 192 193 197 201 206 207
293 291 289 289 290 290 290 291 292 295 298 305 309 309 306 292 278 265 258 258 261 262 261 264 264 252 213 174 159 160 172 186 201 203 200 197 186 182 185 186 187 190 195 196 195 197 199 205 207 209 211 207 205 204 206 211 201 197 189 187 194 191 191 194 191 197 201 199 196 200 210 218 218 215 215 222 213 196 195 212 215 194 185 194 199 198 202 212
293 292 290 287 287 288 288 288 290 294 297 300 305 309 305 290 284 277 268 263 262 261 260 259 260 255 217 184 177 178 199 201 195 196 196 195 187 182 185 183 185 192 195 194 193 196 201 209 210 209 209 204 199 200 210 220 222 216 198 190 196 200 199 198 197 198 200 203 199 202 214 217 217 213 208 217 220 214 205 198 206 199 185 194 200 200 204 214
293 293 291 289 287 285 285 285 287 291 294 295 299 301 290 281 283 287 285 282 275 263 263 260 254 251 217 188 181 179 215 212 192 195 197 193 186 184 185 182 187 192 192 191 191 196 205 212 211 209 208 203 199 204 212 217 230 234 210 196 199 206 204 196 196 198 199 204 199 200 212 211 209 209 207 219 231 234 217 199 199 204 202 199 198 205 209 213
290 291 291 291 288 284 283 283 283 287 289 290 290 284 278 275 273 274 280 288 290 281 270 263 252 248 222 193 187 188 206 204 191 197 195 191 186 184 187 186 189 192 191 191 191 196 206 211 211 211 210 205 205 209 211 218 236 245 228 213 210 209 206 199 199 199 199 205 203 199 208 205 198 203 207 219 236 235 222 215 217 223 224 215 209 216 216 216
288 289 290 289 289 286 281 280 281 281 284 284 277 276 280 281 278 278 280 286 290 288 275 262 249 246 225 195 192 194 195 195 197 200 195 192 186 186 192 192 193 194 195 194 193 199 207 209 210 213 214 211 211 213 218 231 241 247 244 235 226 219 215 209 204 201 196 201 205 194 190 193 192 194 201 207 219 225 223 220 224 233 239 239 232 227 224 225
286 286 286 287 288 286 282 279 277 276 277 271 267 275 284 286 284 287 291 294 292 290 282 258 245 243 217 187 189 190 192 204 200 196 201 198 189 189 194 196 199 200 197 195 197 206 207 205 209 216 216 212 217 221 221 235 246 252 255 245 235 232 228 221 209 198 184 180 195 193 182 189 195 198 202 202 205 214 219 220 224 230 235 239 239 229 222 223
285 284 284 284 284 285 283 279 274 271 269 261 265 274 280 282 285 289 294 301 298 298 301 260 241 240 204 184 184 183 203 221 200 195 209 206 194 192 194 197 204 206 200 194 201 211 205 198 206 215 215 211 219 228 222 231 249 255 258 245 238 244 244 230 209 194 186 187 196 202 201 189 192 202 206 202 204 210 217 223 225 226 230 236 240 236 227 223
283 282 282 282 283 283 281 278 272 267 263 258 263 270 272 272 274 289 299 306 301 302 311 260 232 229 201 185 180 184 209 217 190 195 212 210 197 194 198 202 204 208 202 195 208 215 201 193 203 211 216 215 221 229 223 228 250 255 251 238 239 249 249 227 205 195 200 202 193 198 206 190 190 206 207 201 205 209 216 223 225 225 228 233 238 241 237 230
281 280 279 279 281 282 280 278 266 260 261 256 256 262 266 263 260 282 303 315 298 297 307 279 226 212 200 184 180 190 209 209 188 193 207 214 203 196 202 207 205 207 201 198 211 214 200 193 202 208 215 221 224 225 220 229 250 253 246 240 242 253 249 222 207 201 200 196 182 190 204 193 194 207 203 201 207 210 218 224 226 226 228 232 237 240 240 236
279 278 277 275 278 280 280 279 264 255 258 255 249 251 256 256 250 265 286 263 285 290 307 297 226 207 197 185 185 193 208 213 199 195 199 210 208 201 204 206 205 209 205 205 213 214 205 198 201 208 215 220 221 221 223 235 246 247 246 249 247 259 251 209 204 200 192 187 185 191 201 201 205 208 199 199 208 215 222 226 229 230 230 234 237 240 241 238
276 277 275 272 272 275 277 282 272 254 249 250 246 242 244 244 235 229 182 241 276 286 295 292 229 206 192 188 191 195 202 208 207 202 200 204 206 205 205 202 204 214 212 212 215 214 212 204 204 212 215 217 218 222 228 235 242 242 249 255 251 258 247 197 196 195 187 194 193 193 202 207 215 212 204 206 219 231 229 224 226 229 231 236 238 241 242 239
274 274 274 271 267 270 274 275 269 255 241 240 238 233 232 229 217 199 209 255 279 278 264 271 231 205 198 194 193 194 199 202 207 206 200 199 202 204 205 205 207 215 216 215 213 212 214 212 211 214 212 214 220 227 229 232 239 243 249 255 248 246 229 187 190 192 188 219 199 199 207 209 216 226 220 225 239 249 239 226 225 226 230 234 236 240 242 242
272 271 272 271 265 266 266 255 259 257 239 228 229 226 221 215 209 213 226 250 281 273 255 263 230 210 209 200 195 197 201 201 204 206 201 199 201 203 205 207 207 211 218 217 213 214 217 217 214 212 212 213 220 228 229 228 236 241 246 249 242 222 202 192 189 192 202 216 202 206 208 208 220 230 232 237 243 249 248 238 230 229 231 231 232 236 240 242
270 268 268 269 265 264 258 245 252 254 239 223 223 221 211 205 221 228 233 239 244 242 222 219 229 224 213 201 198 201 204 203 203 209 209 204 204 205 207 210 210 212 218 218 216 217 219 221 219 217 218 216 218 226 227 225 230 234 237 241 233 185 130 221 217 208 226 209 198 203 204 204 219 227 235 246 250 262 262 244 229 229 235 231 231 232 236 240
269 267 264 263 264 263 256 241 243 247 237 221 217 213 206 210 233 238 239 241 241 243 222 214 327 310 239 210 205 204 206 208 206 211 214 207 205 206 207 210 214 217 220 220 221 220 219 222 219 219 221 219 218 223 227 228 229 229 233 239 234 216 200 217 211 187 207 213 202 196 196 196 208 222 245 261 262 269 266 244 224 225 234 233 232 232 233 238
268 267 263 259 259 262 257 242 238 241 235 221 214 210 209 220 233 240 243 245 248 252 256 274 304 311 285 234 215 209 210 210 206 213 218 211 207 207 207 209 213 217 220 220 222 223 227 231 222 218 222 223 222 224 228 231 229 224 227 233 229 219 218 229 234 224 217 219 216 207 217 242 241 249 264 268 263 253 251 236 217 217 227 229 230 230 229 231
268 266 263 260 258 259 254 244 236 236 232 222 217 216 221 231 240 244 246 249 252 256 269 287 290 293 305 279 226 214 218 215 206 212 222 217 214 212 210 210 211 214 217 218 220 220 229 237 229 222 225 226 226 224 222 225 224 218 222 227 226 224 229 231 237 242 232 217 236 241 255 262 263 268 262 258 252 228 215 214 206 206 217 223 225 226 224 225
270 265 264 264 262 256 250 245 237 232 229 224 223 225 231 240 248 250 249 249 248 250 278 295 291 282 305 310 256 218 217 220 211 213 221 218 216 216 214 214 213 213 214 217 221 221 228 242 235 228 229 226 223 223 221 223 225 217 216 223 226 228 231 223 214 232 229 124 243 243 250 251 243 240 242 241 231 209 194 194 193 193 202 210 215 218 220 222
271 265 262 262 261 257 252 248 240 231 227 226 229 232 236 243 251 253 251 253 254 257 270 278 283 284 291 303 289 235 215 218 215 214 218 216 216 218 217 217 217 215 213 215 222 223 228 246 237 227 229 226 217 221 224 223 224 222 219 219 217 215 211 204 202 167 159 220 263 237 242 243 232 221 221 218 208 197 189 185 186 190 194 198 203 211 219 222
276 268 264 260 257 256 250 244 239 233 228 229 232 235 238 244 251 252 251 256 259 261 266 266 269 276 278 285 292 284 242 224 219 216 215 215 217 219 218 217 218 216 213 215 222 223 221 237 238 226 228 228 220 221 224 220 217 220 225 220 213 215 213 206 210 205 184 187 241 236 244 244 239 235 230 222 208 195 187 183 187 194 195 195 197 205 217 222
277 272 269 258 238 238 242 238 233 229 230 233 236 239 242 247 252 253 252 257 261 262 266 268 266 269 275 280 285 292 288 251 230 222 218 216 216 218 218 217 218 218 212 212 220 225 223 231 243 234 228 226 219 218 219 219 215 214 218 216 212 216 217 211 214 214 204 188 167 204 248 242 240 242 237 228 211 200 197 189 188 193 193 194 197 200 210 214
273 271 265 234 211 215 224 235 234 232 235 240 242 244 247 251 255 256 254 255 259 263 269 273 272 270 274 280 282 287 294 282 248 227 221 218 214 215 214 214 217 221 214 210 216 223 224 229 239 241 239 226 213 211 212 217 219 216 216 218 215 212 205 199 208 214 209 206 194 189 228 236 236 240 232 222 208 202 202 194 186 186 189 192 194 198 207 207
269 263 239 208 208 213 211 220 233 241 244 245 249 252 254 256 258 258 259 258 257 262 267 269 269 268 269 274 282 287 288 285 266 238 227 220 217 219 217 215 218 221 217 212 214 217 221 228 234 240 245 234 212 210 217 223 224 220 218 220 220 216 205 195 198 203 200 204 208 210 233 230 224 232 216 206 201 196 190 185 182 180 185 190 192 196 200 201
264 242 208 201 210 219 219 217 222 238 247 250 255 258 258 258 258 259 262 260 259 262 265 264 263 261 263 270 279 286 285 283 276 259 241 227 223 227 226 220 219 220 217 214 214 215 219 226 229 232 241 241 227 221 226 228 225 219 217 220 223 221 216 212 215 208 201 201 201 198 223 212 203 209 202 194 192 187 181 182 181 178 183 188 192 197 197 195
259 234 196 197 209 220 227 228 229 238 250 260 264 262 259 259 260 265 267 263 262 264 266 268 263 257 261 272 280 286 293 294 283 268 265 246 231 230 232 228 222 218 217 217 216 214 215 221 222 219 230 241 235 226 222 221 220 218 216 217 223 223 215 214 221 222 215 213 209 204 207 203 195 188 188 189 187 183 181 185 185 182 185 186 187 191 194 194
257 240 200 195 205 215 222 229 237 244 250 261 265 263 262 263 263 269 275 275 269 267 267 265 262 262 266 271 279 286 292 295 287 278 289 283 247 232 229 229 226 221 221 223 220 216 216 220 220 214 206 214 222 214 209 209 211 217 218 215 220 224 213 209 216 223 224 219 218 220 209 188 186 184 182 183 184 184 186 190 190 188 187 187 187 187 192 197
261 251 218 199 203 214 219 223 231 238 244 255 260 256 255 262 264 262 265 271 270 268 269 265 264 268 269 271 280 287 288 283 277 289 305 308 278 248 232 227 226 226 226 225 222 218 218 222 223 221 223 226 224 213 209 208 208 214 219 218 221 229 225 218 216 218 220 216 220 231 218 179 174 177 178 180 184 191 196 195 192 193 190 190 192 190 191 198
264 259 240 213 206 213 219 224 230 234 238 251 259 256 255 263 270 263 249 252 267 276 273 270 270 267 269 283 286 283 284 280 274 295 319 323 293 266 249 235 226 227 226 223 222 218 216 219 223 224 227 231 233 220 208 208 211 213 218 220 222 226 226 224 223 224 224 218 215 226 223 195 181 178 180 185 190 198 201 196 194 194 191 190 190 188 190 198
265 259 252 236 222 216 216 220 227 233 236 245 255 258 261 270 282 281 260 248 263 279 273 269 267 261 270 297 294 283 286 283 281 305 320 306 303 295 266 235 214 225 232 224 221 218 216 218 222 224 225 228 235 232 215 211 213 215 218 221 221 220 221 223 228 232 232 227 224 226 225 216 203 194 195 200 205 209 206 201 200 197 191 189 192 194 198 204
270 261 256 249 243 234 222 219 224 231 233 240 252 256 262 273 283 287 275 265 271 278 277 276 270 261 273 301 305 298 298 290 289 309 307 294 301 304 292 246 213 226 251 233 222 218 217 218 221 225 226 224 229 233 222 216 215 213 216 221 222 219 219 222 230 235 233 230 233 236 232 229 224 216 217 221 221 216 207 201 203 202 194 194 198 202 203 205
270 267 261 255 249 246 239 231 233 235 231 236 250 252 256 267 275 271 263 269 286 288 284 281 275 267 274 296 312 302 284 279 281 286 288 291 297 295 297 281 234 240 272 248 222 219 217 218 222 223 221 222 228 230 223 220 223 220 217 218 221 220 220 226 233 234 228 226 231 235 229 227 233 239 235 226 215 207 200 199 204 202 198 198 199 198 199 201
271 272 269 262 252 245 246 243 243 244 236 234 245 252 259 268 281 275 255 246 268 287 294 289 283 277 277 293 313 290 251 258 262 262 269 280 299 307 288 273 265 279 293 139 238 231 221 215 214 214 210 211 217 219 216 212 220 226 216 212 217 222 220 227 236 234 228 227 230 230 226 228 236 238 228 213 205 202 198 197 198 195 195 199 202 204 205 207
272 274 275 274 266 253 249 245 244 246 241 239 244 252 268 281 305 313 276 245 240 256 288 295 295 299 289 294 313 282 222 226 243 249 256 262 274 294 285 271 263 285 294 245 291 299 236 213 203 202 197 191 199 205 203 190 204 223 208 205 212 213 192 204 225 234 233 230 227 224 225 229 234 234 222 207 201 201 199 198 197 194 196 203 209 211 208 208
Height
3179 3178 3177 3176 3175 3174 3173 3172 3171 3169 3168 3168 3167 3167 3166 3166 3165 3165 3165 3164 3164 3164 3164 3163 3163 3163 3163 3163 3163 3163 3162 3162 3162 3162 3164 3166 3167 3168 3171 3173 3175 3177 3178 3180 3182 3183 3184 3185 3186 3185 3185 3185 3186 3186 3188 3188 3188 3188 3188 3190 3190 3190 3191 3192 3192 3193 3193 3193 3194 3195 3196 3196 3197 3198 3198 3197 3197 3196 3196 3197 3198 3198 3200 3201 3201 3200 3201 3202
3178 3177 3176 3175 3174 3173 3172 3170 3169 3168 3167 3166 3166 3165 3165 3164 3164 3163 3163 3163 3162 3162 3161 3161 3161 3160 3160 3160 3160 3160 3159 3159 3159 3160 3161 3162 3163 3166 3169 3171 3173 3175 3177 3179 3180 3182 3183 3184 3184 3184 3183 3183 3183 3185 3186 3187 3187 3186 3186 3188 3190 3190 3191 3192 3192 3193 3193 3193 3194 3196 3196 3196 3197 3197 3197 3196 3195 3196 3196 3197 3198 3198 3199 3201 3202 3201 3202 3202
3177 3176 3175 3174 3173 3171 3170 3169 3168 3167 3166 3165 3164 3163 3163 3162 3162 3162 3161 3161 3160 3160 3159 3159 3158 3158 3158 3158 3157 3157 3156 3156 3156 3157 3158 3160 3163 3165 3167 3169 3171 3174 3176 3178 3179 3181 3182 3183 3183 3183 3183 3183 3182 3183 3184 3185 3186 3186 3186 3186 3188 3190 3191 3192 3193 3193 3193 3192 3194 3196 3197 3197 3197 3197 3196 3195 3195 3196 3196 3197 3198 3198 3198 3200 3201 3201 3202 3203
3176 3175 3174 3173 3172 3170 3169 3168 3167 3166 3164 3163 3162 3162 3161 3161 3160 3160 3159 3159 3158 3158 3157 3157 3156 3156 3155 3155 3155 3155 3154 3154 3154 3155 3157 3159 3161 3163 3165 3168 3170 3172 3175 3176 3178 3180 3181 3182 3182 3183 3183 3182 3182 3182 3181 3182 3184 3184 3185 3186 3187 3189 3190 3191 3193 3193 3193 3193 3194 3196 3197 3197 3197 3197 3196 3195 3196 3196 3196 3197 3198 3199 3199 3200 3200 3201 3202 3203
3174 3173 3172 3171 3170 3169 3168 3167 3165 3164 3163 3162 3161 3160 3159 3159 3158 3158 3157 3157 3156 3156 3155 3155 3154 3154 3153 3153 3153 3153 3152 3152 3153 3153 3155 3157 3159 3162 3164 3166 3168 3171 3173 3175 3177 3179 3180 3181 3181 3181 3182 3182 3181 3181 3180 3181 3183 3183 3184 3185 3186 3187 3188 3190 3191 3192 3194 3194 3194 3195 3196 3197 3197 3197 3196 3196 3196 3196 3196 3197 3198 3199 3199 3200 3200 3201 3201 3202
3173 3172 3171 3170 3169 3168 3167 3166 3164 3163 3162 3161 3160 3159 3158 3157 3157 3156 3155 3155 3154 3154 3153 3153 3152 3151 3151 3151 3151 3151 3151 3152 3152 3152 3153 3155 3157 3160 3162 3164 3166 3169 3172 3174 3177 3178 3179 3180 3179 3179 3181 3181 3180 3180 3180 3180 3182 3182 3181 3183 3185 3187 3188 3189 3190 3191 3193 3194 3195 3195 3196 3197 3197 3197 3197 3197 3197 3197 3197 3197 3198 3199 3199 3200 3200 3201 3202 3203
3171 3170 3169 3168 3167 3166 3165 3164 3163 3162 3161 3159 3158 3157 3156 3155 3155 3154 3153 3152 3152 3151 3151 3150 3150 3149 3149 3149 3149 3149 3150 3151 3151 3151 3152 3154 3156 3158 3160 3162 3164 3167 3171 3174 3176 3177 3178 3178 3177 3179 3180 3180 3180 3180 3180 3181 3183 3182 3180 3183 3185 3186 3187 3188 3190 3191 3193 3194 3195 3196 3197 3197 3197 3196 3197 3197 3197 3197 3197 3198 3198 3199 3199 3200 3200 3201 3202 3203
3170 3169 3168 3167 3166 3165 3164 3163 3162 3161 3160 3158 3157 3156 3155 3154 3153 3153 3152 3151 3150 3149 3149 3148 3148 3148 3147 3147 3147 3148 3148 3149 3150 3150 3151 3152 3154 3156 3159 3161 3163 3166 3170 3173 3175 3176 3177 3177 3177 3178 3179 3179 3179 3180 3180 3181 3183 3182 3181 3183 3184 3185 3186 3187 3189 3191 3193 3194 3195 3196 3197 3197 3197 3196 3196 3197 3197 3197 3197 3198 3199 3199 3199 3199 3200 3201 3201 3202
3168 3167 3166 3165 3164 3163 3162 3161 3160 3159 3158 3157 3156 3155 3154 3153 3152 3151 3150 3149 3148 3147 3147 3146 3146 3146 3145 3145 3145 3146 3147 3147 3148 3149 3150 3151 3153 3155 3157 3160 3163 3166 3169 3172 3174 3174 3175 3176 3177 3178 3179 3179 3179 3178 3180 3181 3182 3181 3181 3182 3183 3184 3185 3186 3187 3190 3192 3194 3195 3195 3196 3197 3196 3196 3197 3197 3197 3197 3198 3198 3199 3199 3199 3199 3200 3201 3201 3202
3166 3165 3164 3164 3163 3162 3161 3160 3159 3158 3157 3156 3155 3154 3152 3151 3150 3149 3148 3147 3146 3146 3145 3145 3144 3144 3144 3144 3144 3145 3145 3145 3146 3147 3148 3150 3152 3154 3156 3159 3162 3165 3168 3171 3172 3173 3174 3176 3178 3178 3178 3178 3177 3177 3178 3180 3181 3181 3182 3182 3183 3183 3185 3186 3187 3189 3191 3193 3194 3195 3195 3196 3196 3196 3197 3197 3197 3198 3198 3198 3199 3199 3200 3200 3200 3201 3201 3202
3165 3164 3163 3162 3161 3160 3159 3158 3157 3156 3156 3154 3153 3152 3151 3150 3149 3148 3147 3146 3145 3144 3143 3143 3142 3142 3142 3142 3142 3144 3143 3143 3145 3145 3146 3148 3150 3153 3155 3158 3161 3163 3167 3170 3170 3172 3174 3176 3178 3178 3178 3177 3177 3177 3177 3180 3181 3181 3182 3183 3183 3183 3184 3186 3187 3188 3190 3192 3193 3194 3194 3196 3196 3196 3196 3196 3197 3198 3198 3199 3199 3199 3200 3200 3200 3201 3202 3202
3163 3162 3161 3160 3159 3158 3157 3156 3156 3155 3154 3153 3152 3151 3150 3148 3147 3146 3145 3144 3143 3143 3142 3141 3140 3140 3140 3140 3141 3141 3140 3141 3142 3143 3144 3145 3147 3150 3153 3156 3159 3163 3166 3168 3169 3171 3174 3176 3176 3177 3177 3177 3176 3176 3177 3181 3182 3181 3181 3181 3183 3184 3184 3186 3186 3188 3190 3190 3192 3193 3194 3196 3196 3195 3195 3196 3197 3197 3198 3199 3199 3199 3200 3200 3201 3201 3202 3203
3162 3161 3160 3159 3158 3157 3156 3155 3154 3153 3152 3151 3150 3149 3148 3147 3146 3145 3143 3142 3142 3141 3140 3139 3138 3138 3138 3138 3139 3139 3138 3140 3141 3142 3143 3144 3145 3147 3151 3154 3158 3161 3165 3166 3168 3171 3173 3174 3175 3175 3176 3174 3174 3176 3177 3180 3182 3181 3180 3179 3182 3185 3185 3186 3187 3188 3189 3189 3191 3192 3193 3196 3196 3195 3195 3196 3196 3197 3197 3198 3199 3199 3200 3200 3201 3201 3202 3202
3159 3159 3158 3157 3156 3155 3154 3153 3152 3151 3150 3150 3149 3147 3146 3145 3144 3143 3142 3141 3140 3139 3138 3137 3137 3137 3136 3137 3137 3136 3136 3137 3139 3141 3142 3144 3144 3145 3148 3152 3155 3159 3162 3164 3166 3169 3171 3172 3173 3173 3174 3173 3172 3175 3176 3177 3179 3180 3180 3179 3181 3183 3185 3187 3186 3187 3188 3189 3190 3191 3192 3194 3195 3195 3195 3195 3196 3196 3197 3197 3198 3199 3199 3200 3200 3201 3202 3203
3157 3157 3156 3155 3154 3154 3152 3151 3150 3149 3148 3148 3147 3146 3144 3143 3142 3141 3140 3139 3138 3137 3136 3135 3135 3135 3135 3135 3135 3134 3134 3136 3139 3141 3141 3143 3144 3144 3147 3151 3154 3158 3159 3161 3165 3167 3169 3170 3171 3172 3173 3172 3172 3175 3175 3176 3177 3177 3179 3180 3181 3182 3184 3186 3185 3186 3186 3187 3189 3190 3191 3193 3194 3195 3195 3195 3195 3196 3196 3197 3197 3198 3199 3199 3200 3201 3202 3203
3155 3154 3154 3153 3152 3152 3151 3150 3148 3147 3147 3146 3145 3144 3143 3141 3141 3140 3139 3138 3136 3135 3134 3134 3133 3133 3133 3133 3133 3133 3134 3136 3138 3140 3140 3142 3143 3144 3147 3150 3154 3156 3158 3160 3164 3165 3167 3168 3169 3171 3171 3170 3171 3174 3174 3174 3175 3175 3177 3178 3179 3181 3184 3185 3185 3185 3184 3184 3188 3189 3190 3192 3193 3194 3194 3195 3195 3195 3196 3196 3196 3197 3198 3199 3200 3201 3201 3202
3153 3152 3152 3151 3150 3149 3149 3148 3147 3146 3145 3144 3143 3142 3141 3140 3139 3138 3137 3136 3135 3133 3132 3132 3132 3131 3131 3132 3132 3133 3134 3136 3137 3138 3140 3142 3142 3143 3146 3149 3151 3154 3156 3159 3162 3163 3164 3165 3167 3169 3169 3168 3169 3172 3173 3172 3172 3174 3175 3177 3178 3179 3182 3183 3184 3184 3182 3182 3185 3187 3188 3190 3191 3192 3193 3194 3194 3194 3195 3195 3196 3196 3197 3198 3199 3200 3201 3201
3151 3150 3150 3149 3148 3147 3146 3145 3145 3144 3143 3143 3142 3140 3139 3138 3137 3136 3135 3134 3133 3132 3130 3130 3130 3130 3130 3130 3130 3132 3133 3135 3137 3137 3138 3140 3141 3142 3145 3148 3150 3153 3155 3157 3159 3160 3162 3163 3164 3166 3166 3166 3167 3169 3170 3171 3171 3172 3174 3176 3177 3177 3178 3179 3179 3181 3180 3180 3183 3185 3187 3188 3189 3190 3192 3193 3193 3194 3194 3195 3195 3196 3197 3198 3198 3199 3200 3200
3149 3148 3148 3147 3146 3145 3144 3143 3142 3142 3141 3142 3140 3139 3137 3135 3134 3133 3132 3130 3130 3130 3129 3128 3128 3128 3128 3128 3129 3130 3131 3132 3134 3135 3137 3138 3139 3140 3143 3146 3149 3151 3152 3153 3155 3158 3159 3160 3161 3162 3162 3162 3164 3167 3168 3170 3172 3172 3172 3173 3174 3174 3175 3176 3176 3178 3179 3179 3181 3182 3184 3185 3186 3188 3189 3191 3192 3193 3194 3194 3195 3195 3196 3197 3197 3198 3199 3199
3146 3146 3145 3145 3144 3143 3142 3141 3140 3140 3140 3140 3139 3138 3136 3133 3130 3130 3127 3126 3126 3127 3127 3126 3126 3126 3126 3127 3127 3127 3128 3129 3130 3132 3135 3136 3138 3139 3141 3144 3146 3148 3149 3150 3153 3156 3157 3157 3157 3158 3160 3161 3163 3166 3167 3168 3171 3172 3171 3172 3172 3173 3174 3175 3176 3177 3178 3178 3179 3180 3182 3183 3184 3186 3187 3188 3190 3191 3192 3193 3193 3194 3194 3195 3196 3197 3197 3198
3143 3143 3143 3142 3142 3141 3140 3139 3138 3138 3138 3138 3137 3137 3134 3130 3128 3126 3123 3122 3124 3124 3123 3123 3124 3122 3124 3125 3125 3125 3126 3125 3126 3129 3132 3135 3137 3137 3138 3140 3142 3143 3145 3149 3152 3154 3155 3153 3153 3156 3159 3161 3163 3164 3165 3166 3169 3171 3171 3170 3171 3171 3172 3173 3175 3176 3177 3177 3179 3180 3181 3182 3183 3184 3185 3186 3187 3188 3190 3191 3192 3192 3193 3194 3195 3195 3196 3197
3141 3140 3140 3139 3139 3138 3138 3137 3136 3136 3136 3136 3135 3135 3132 3130 3128 3126 3121 3118 3119 3121 3120 3120 3120 3119 3121 3123 3123 3124 3124 3123 3123 3126 3129 3133 3133 3134 3136 3137 3139 3141 3144 3148 3149 3151 3151 3149 3151 3156 3159 3160 3161 3162 3163 3165 3167 3169 3170 3169 3169 3170 3171 3174 3175 3175 3176 3176 3178 3179 3180 3181 3182 3182 3183 3184 3185 3186 3188 3189 3190 3191 3192 3192 3193 3193 3194 3195
3138 3137 3137 3137 3136 3136 3135 3135 3134 3134 3134 3134 3134 3132 3130 3129 3129 3126 3122 3117 3114 3116 3117 3117 3116 3116 3117 3119 3121 3122 3121 3120 3121 3123 3127 3130 3130 3132 3134 3135 3137 3140 3143 3144 3145 3146 3146 3147 3151 3156 3158 3159 3160 3160 3162 3163 3165 3166 3168 3168 3168 3169 3171 3172 3173 3174 3175 3175 3176 3178 3179 3180 3181 3182 3182 3183 3184 3185 3186 3187 3188 3189 3190 3191 3192 3192 3192 3193
3135 3134 3134 3133 3134 3133 3133 3133 3132 3132 3132 3132 3131 3129 3128 3129 3128 3125 3123 3119 3112 3110 3113 3113 3112 3111 3113 3116 3119 3119 3119 3119 3119 3121 3126 3128 3129 3131 3132 3134 3137 3138 3140 3142 3144 3144 3144 3148 3152 3155 3156 3158 3158 3158 3160 3161 3162 3164 3165 3167 3167 3169 3170 3169 3171 3173 3174 3176 3176 3177 3180 3180 3180 3181 3181 3182 3184 3185 3185 3186 3186 3187 3189 3190 3191 3191 3191 3192
3132 3132 3131 3130 3131 3131 3131 3130 3130 3130 3130 3130 3128 3127 3128 3128 3127 3125 3122 3119 3112 3106 3108 3110 3107 3107 3109 3113 3115 3116 3118 3118 3118 3120 3124 3126 3127 3129 3131 3134 3135 3136 3138 3141 3143 3143 3144 3148 3151 3153 3154 3155 3156 3156 3157 3159 3160 3161 3162 3164 3166 3168 3168 3169 3171 3172 3173 3175 3174 3174 3178 3179 3178 3179 3179 3180 3181 3182 3183 3183 3183 3185 3187 3188 3189 3189 3190 3191
3129 3129 3128 3127 3128 3128 3129 3128 3127 3127 3127 3127 3126 3126 3127 3126 3126 3125 3122 3120 3112 3104 3104 3105 3104 3104 3106 3108 3110 3114 3116 3115 3116 3120 3123 3125 3127 3128 3130 3132 3133 3134 3137 3140 3142 3142 3143 3147 3149 3151 3152 3153 3153 3153 3154 3157 3159 3158 3158 3162 3164 3165 3166 3167 3168 3169 3169 3169 3169 3169 3171 3174 3177 3177 3177 3178 3179 3179 3180 3181 3181 3183 3184 3185 3186 3188 3189 3190
3127 3126 3125 3124 3124 3125 3126 3126 3125 3124 3124 3125 3124 3125 3126 3125 3126 3125 3123 3122 3112 3103 3101 3101 3102 3103 3104 3107 3109 3112 3112 3111 3115 3119 3121 3124 3126 3128 3129 3129 3131 3133 3136 3140 3139 3138 3141 3145 3146 3148 3150 3150 3150 3150 3152 3155 3156 3154 3156 3160 3162 3162 3163 3163 3164 3165 3164 3165 3168 3168 3168 3171 3174 3173 3174 3177 3178 3178 3178 3178 3179 3180 3181 3183 3184 3185 3187 3188
3124 3123 3122 3122 3122 3122 3123 3124 3123 3121 3122 3123 3123 3124 3124 3124 3125 3124 3125 3123 3111 3102 3101 3100 3100 3101 3103 3107 3109 3109 3110 3111 3113 3115 3119 3123 3124 3126 3126 3127 3130 3132 3135 3136 3134 3135 3139 3142 3143 3145 3147 3147 3146 3148 3150 3154 3154 3152 3154 3158 3159 3160 3160 3160 3160 3161 3161 3163 3167 3168 3168 3169 3170 3169 3172 3176 3176 3176 3175 3175 3175 3176 3178 3180 3181 3183 3184 3185
3121 3120 3119 3119 3119 3119 3120 3121 3120 3119 3120 3120 3121 3122 3122 3123 3124 3124 3126 3122 3108 3101 3101 3100 3100 3101 3103 3107 3108 3109 3110 3112 3112 3114 3118 3121 3122 3124 3124 3126 3130 3132 3133 3134 3133 3135 3139 3140 3143 3144 3145 3144 3145 3147 3149 3151 3151 3151 3154 3156 3157 3157 3158 3157 3157 3157 3159 3161 3162 3164 3166 3167 3166 3167 3170 3173 3173 3171 3170 3171 3172 3174 3176 3178 3178 3180 3181 3183
3118 3117 3116 3117 3117 3116 3118 3118 3117 3117 3118 3118 3119 3120 3121 3122 3122 3124 3126 3118 3105 3102 3102 3100 3101 3102 3103 3106 3107 3109 3110 3111 3113 3115 3116 3119 3121 3123 3125 3127 3130 3131 3132 3133 3133 3136 3138 3141 3142 3142 3143 3144 3145 3146 3147 3149 3150 3151 3153 3154 3154 3155 3156 3156 3155 3155 3158 3158 3158 3160 3162 3163 3163 3163 3165 3166 3165 3164 3164 3166 3169 3171 3173 3175 3176 3178 3178 3180
3114 3114 3113 3114 3114 3114 3116 3116 3113 3114 3116 3116 3116 3118 3119 3119 3121 3122 3119 3111 3104 3101 3100 3100 3101 3102 3103 3105 3106 3108 3109 3111 3112 3113 3113 3116 3119 3121 3122 3125 3126 3128 3130 3130 3132 3134 3137 3138 3139 3140 3142 3144 3145 3144 3145 3147 3148 3149 3151 3152 3153 3153 3153 3155 3155 3156 3156 3155 3156 3158 3159 3161 3160 3160 3161 3160 3160 3160 3161 3161 3163 3166 3169 3171 3173 3175 3176 3178
3111 3111 3111 3111 3111 3112 3114 3113 3110 3111 3113 3114 3114 3115 3117 3118 3118 3115 3110 3108 3105 3100 3099 3100 3102 3102 3103 3104 3105 3106 3107 3109 3110 3111 3112 3113 3115 3116 3118 3119 3121 3123 3124 3126 3129 3132 3133 3133 3136 3138 3140 3141 3142 3142 3142 3144 3145 3146 3148 3149 3150 3149 3150 3153 3153 3154 3153 3153 3154 3155 3157 3158 3156 3156 3157 3157 3157 3158 3158 3158 3160 3163 3165 3167 3170 3173 3174 3176
3108 3107 3108 3109 3108 3110 3111 3110 3108 3109 3110 3112 3112 3113 3114 3115 3111 3106 3105 3107 3103 3098 3099 3100 3101 3104 3104 3102 3102 3103 3105 3107 3108 3109 3110 3111 3112 3114 3116 3118 3119 3120 3121 3124 3127 3128 3130 3131 3132 3134 3135 3137 3139 3139 3139 3140 3141 3142 3143 3145 3146 3146 3149 3151 3152 3152 3152 3151 3152 3154 3154 3153 3151 3152 3153 3153 3154 3155 3155 3156 3159 3162 3164 3165 3168 3170 3173 3174
3105 3104 3105 3106 3106 3107 3107 3107 3106 3106 3107 3109 3110 3110 3111 3109 3103 3101 3102 3102 3099 3098 3099 3100 3100 3103 3103 3102 3100 3100 3102 3104 3106 3108 3109 3109 3110 3111 3113 3116 3117 3119 3121 3124 3124 3125 3126 3125 3125 3128 3130 3133 3135 3135 3136 3138 3139 3140 3141 3143 3142 3142 3145 3148 3148 3149 3149 3149 3150 3152 3151 3149 3147 3147 3149 3150 3152 3153 3154 3155 3159 3161 3163 3164 3166 3169 3171 3173
3101 3101 3102 3103 3104 3104 3103 3103 3103 3103 3104 3106 3107 3107 3105 3101 3098 3097 3097 3097 3098 3099 3099 3099 3101 3100 3100 3101 3100 3099 3100 3101 3103 3106 3106 3106 3106 3107 3110 3112 3114 3117 3119 3120 3120 3122 3122 3120 3122 3126 3128 3130 3132 3133 3135 3137 3137 3138 3140 3140 3139 3139 3142 3144 3145 3144 3144 3145 3145 3145 3144 3144 3144 3144 3146 3149 3150 3151 3152 3154 3158 3160 3161 3163 3165 3167 3170 3171
3098 3098 3099 3100 3101 3100 3099 3099 3100 3100 3101 3103 3103 3100 3096 3094 3094 3094 3095 3096 3098 3100 3099 3098 3099 3099 3097 3098 3098 3099 3098 3099 3101 3103 3103 3104 3105 3105 3108 3109 3111 3113 3115 3116 3118 3119 3120 3118 3121 3125 3126 3128 3129 3130 3132 3132 3133 3135 3135 3135 3136 3139 3141 3142 3142 3142 3141 3141 3140 3139 3139 3140 3142 3142 3144 3146 3147 3149 3150 3152 3156 3158 3159 3161 3163 3165 3167 3168
3095 3095 3096 3097 3096 3096 3096 3096 3097 3097 3098 3099 3097 3093 3091 3091 3092 3093 3094 3096 3098 3100 3100 3098 3097 3097 3097 3095 3096 3097 3097 3097 3100 3100 3100 3102 3102 3103 3105 3107 3109 3111 3112 3115 3116 3117 3118 3117 3118 3121 3122 3124 3127 3129 3130 3130 3131 3131 3130 3132 3137 3139 3139 3139 3140 3140 3141 3141 3140 3138 3138 3139 3140 3141 3142 3143 3145 3146 3147 3149 3153 3156 3158 3159 3160 3162 3164 3166
3091 3092 3093 3092 3092 3093 3093 3093 3093 3094 3095 3094 3091 3090 3090 3089 3089 3092 3094 3095 3097 3098 3099 3098 3096 3096 3096 3095 3095 3096 3097 3095 3096 3096 3097 3098 3098 3099 3103 3105 3107 3109 3111 3114 3114 3115 3117 3117 3116 3117 3119 3121 3124 3126 3125 3126 3128 3128 3128 3132 3133 3132 3133 3135 3137 3138 3141 3143 3141 3138 3138 3138 3138 3139 3140 3141 3142 3143 3145 3147 3151 3153 3155 3156 3157 3159 3161 3163
3088 3089 3089 3088 3089 3090 3089 3089 3091 3092 3091 3089 3087 3087 3087 3086 3088 3092 3093 3094 3096 3097 3096 3097 3097 3095 3095 3095 3093 3094 3096 3093 3092 3093 3093 3094 3095 3096 3099 3102 3104 3106 3109 3111 3111 3113 3116 3116 3114 3114 3117 3119 3121 3120 3118 3120 3124 3126 3127 3129 3128 3128 3129 3131 3133 3134 3137 3141 3141 3139 3137 3135 3135 3136 3137 3138 3140 3142 3143 3146 3148 3150 3152 3154 3156 3157 3159 3161
3085 3086 3085 3086 3087 3087 3086 3086 3087 3087 3086 3085 3084 3085 3085 3085 3087 3090 3092 3093 3094 3095 3094 3095 3096 3094 3092 3093 3092 3092 3094 3092 3090 3090 3089 3090 3092 3093 3096 3098 3100 3103 3105 3108 3109 3110 3113 3113 3112 3112 3114 3114 3113 3112 3114 3116 3119 3121 3122 3124 3125 3126 3127 3129 3130 3130 3132 3135 3138 3138 3136 3132 3132 3134 3135 3136 3138 3139 3141 3143 3145 3148 3151 3153 3155 3157 3158 3159
3083 3083 3083 3083 3084 3083 3083 3083 3083 3084 3083 3083 3083 3084 3084 3085 3085 3087 3090 3092 3092 3092 3092 3092 3094 3093 3091 3090 3090 3090 3091 3090 3088 3087 3086 3086 3088 3089 3092 3095 3097 3099 3101 3103 3104 3105 3108 3110 3109 3109 3109 3108 3106 3109 3113 3114 3116 3117 3118 3121 3123 3124 3124 3125 3127 3128 3129 3130 3132 3134 3133 3130 3130 3132 3133 3134 3135 3137 3139 3141 3144 3147 3150 3152 3154 3155 3156 3158
3080 3081 3080 3081 3081 3080 3080 3080 3081 3082 3081 3081 3082 3083 3084 3084 3082 3084 3087 3089 3089 3089 3090 3090 3090 3090 3090 3089 3088 3088 3088 3087 3085 3084 3083 3082 3083 3085 3087 3090 3092 3094 3096 3098 3099 3101 3104 3107 3107 3107 3106 3105 3106 3109 3111 3111 3113 3115 3116 3119 3121 3122 3122 3122 3123 3125 3127 3127 3128 3130 3129 3127 3128 3130 3131 3132 3134 3136 3138 3140 3142 3145 3147 3149 3151 3153 3154 3156
3077 3078 3079 3079 3079 3078 3077 3076 3078 3079 3078 3080 3081 3081 3081 3081 3080 3081 3083 3086 3086 3086 3087 3087 3086 3087 3088 3087 3087 3087 3087 3084 3081 3081 3081 3080 3080 3081 3083 3086 3088 3090 3092 3093 3095 3099 3102 3103 3104 3105 3105 3104 3105 3108 3109 3109 3111 3112 3113 3116 3117 3118 3119 3120 3122 3124 3124 3124 3125 3127 3126 3125 3126 3128 3130 3132 3134 3136 3137 3139 3140 3142 3144 3146 3148 3150 3152 3154
3074 3076 3077 3077 3075 3075 3074 3075 3076 3076 3077 3078 3079 3078 3078 3078 3077 3078 3080 3082 3083 3083 3084 3083 3083 3084 3084 3084 3085 3085 3084 3083 3079 3077 3079 3079 3078 3078 3080 3082 3084 3086 3087 3088 3091 3094 3096 3097 3099 3102 3103 3103 3102 3103 3103 3104 3106 3106 3109 3112 3114 3115 3117 3119 3121 3122 3122 3121 3122 3123 3124 3123 3124 3126 3128 3131 3133 3134 3136 3137 3138 3140 3141 3144 3145 3148 3150 3152
3071 3072 3073 3072 3071 3071 3072 3073 3074 3074 3075 3076 3075 3075 3075 3074 3074 3076 3077 3078 3079 3081 3080 3079 3079 3081 3080 3081 3081 3081 3081 3081 3078 3076 3076 3076 3076 3076 3078 3079 3081 3082 3082 3084 3087 3089 3091 3092 3094 3096 3098 3098 3098 3096 3096 3099 3102 3104 3106 3109 3112 3113 3114 3116 3118 3119 3119 3119 3119 3121 3121 3122 3123 3125 3127 3129 3131 3133 3134 3136 3137 3138 3140 3141 3143 3145 3147 3149
3068 3068 3068 3068 3069 3070 3070 3071 3071 3072 3073 3073 3071 3071 3072 3071 3070 3072 3074 3074 3075 3077 3077 3076 3077 3078 3077 3077 3078 3078 3078 3077 3076 3074 3072 3073 3073 3074 3075 3077 3078 3078 3079 3081 3083 3085 3088 3088 3089 3091 3093 3093 3094 3094 3095 3098 3100 3102 3103 3106 3108 3110 3111 3112 3113 3114 3115 3116 3117 3119 3120 3121 3122 3124 3125 3128 3129 3131 3132 3134 3135 3137 3138 3139 3141 3143 3145 3147
3066 3065 3065 3066 3067 3067 3068 3069 3069 3069 3070 3070 3068 3068 3069 3069 3068 3069 3070 3070 3071 3073 3073 3074 3074 3075 3074 3075 3075 3075 3074 3073 3072 3072 3071 3071 3071 3071 3073 3075 3076 3077 3078 3079 3080 3082 3083 3084 3086 3088 3090 3091 3093 3094 3095 3096 3097 3099 3101 3103 3104 3106 3107 3108 3108 3110 3113 3114 3115 3117 3119 3119 3120 3122 3124 3125 3127 3128 3129 3130 3132 3134 3135 3137 3139 3140 3142 3144
3063 3063 3063 3064 3064 3063 3064 3066 3066 3066 3068 3068 3067 3067 3067 3067 3067 3067 3067 3068 3068 3070 3071 3071 3072 3072 3073 3073 3073 3071 3070 3069 3069 3070 3070 3069 3069 3069 3070 3071 3073 3075 3076 3077 3078 3078 3079 3081 3083 3086 3088 3090 3092 3093 3094 3094 3096 3097 3099 3099 3101 3102 3104 3105 3106 3108 3110 3111 3112 3114 3116 3116 3117 3119 3120 3122 3123 3124 3125 3126 3129 3131 3133 3135 3136 3138 3140 3142
3060 3060 3060 3061 3061 3061 3062 3063 3063 3063 3065 3066 3066 3066 3066 3065 3064 3065 3065 3066 3065 3067 3068 3068 3068 3069 3069 3070 3070 3068 3066 3066 3066 3067 3068 3068 3067 3067 3067 3068 3070 3072 3072 3072 3074 3076 3077 3078 3080 3083 3086 3088 3089 3090 3092 3093 3094 3095 3096 3097 3098 3099 3101 3103 3105 3106 3107 3108 3110 3111 3112 3113 3114 3116 3118 3119 3120 3121 3123 3125 3127 3129 3131 3132 3134 3136 3138 3140
3057 3057 3057 3058 3058 3059 3060 3060 3060 3060 3062 3064 3063 3064 3064 3062 3061 3061 3062 3063 3062 3063 3065 3065 3065 3065 3066 3066 3066 3064 3064 3065 3065 3066 3067 3067 3066 3066 3066 3066 3067 3068 3069 3069 3071 3073 3074 3074 3077 3081 3083 3085 3086 3088 3090 3091 3092 3093 3093 3094 3096 3097 3099 3101 3102 3102 3104 3105 3106 3108 3109 3110 3112 3115 3116 3117 3119 3121 3123 3124 3126 3127 3129 3130 3132 3134 3135 3137
3055 3054 3054 3054 3055 3056 3057 3057 3057 3057 3059 3061 3060 3060 3060 3059 3059 3058 3057 3058 3060 3060 3061 3061 3060 3061 3062 3063 3063 3061 3061 3062 3063 3064 3066 3066 3066 3066 3065 3065 3065 3066 3067 3068 3069 3071 3072 3072 3074 3076 3078 3080 3083 3086 3087 3088 3089 3090 3090 3092 3095 3095 3096 3096 3097 3097 3099 3101 3103 3104 3104 3106 3110 3113 3114 3116 3117 3119 3120 3122 3124 3126 3127 3129 3130 3131 3132 3133
3052 3052 3051 3051 3052 3053 3053 3053 3054 3055 3056 3057 3057 3057 3058 3057 3056 3055 3053 3054 3056 3058 3058 3058 3058 3059 3060 3060 3060 3059 3058 3059 3060 3061 3063 3064 3065 3065 3064 3065 3065 3065 3065 3066 3066 3067 3068 3069 3070 3072 3074 3077 3080 3083 3084 3085 3087 3088 3088 3090 3092 3092 3092 3093 3094 3095 3097 3099 3100 3101 3102 3106 3109 3110 3111 3113 3115 3116 3118 3120 3121 3123 3125 3127 3128 3129 3130 3131